VOZ866 YSSY-YMML

Flight info

Callsign VOZ866
Flight time 1h 8m
Altitude 38000
Route DCT WOL H65 LEECE Q29 BOOIN DCT
Aircraft B738/M-SDFGHIRWZ/LB1

Departure

Time 2026-04-26 07:46
Airport Sydney Kingsford Smith International Airport (YSSY)

Arrival

Time 2026-04-26 08:55
Airport Melbourne Airport (YMML)
Time Latitude Longitude Altitude Speed Heading
2026-04-26 07:22 -33.93596 151.17981 29 ft 0 kts 280°
2026-04-26 07:27 -33.93600 151.18006 29 ft 4 kts 277°
2026-04-26 07:27 -33.93601 151.18038 29 ft 4 kts 253°
2026-04-26 07:27 -33.93591 151.18055 29 ft 2 kts 189°
2026-04-26 07:27 -33.93612 151.18052 29 ft 4 kts 184°
2026-04-26 07:28 -33.93639 151.18051 29 ft 4 kts 181°
2026-04-26 07:28 -33.93665 151.18051 29 ft 2 kts 180°
2026-04-26 07:28 -33.93666 151.18051 29 ft 0 kts 180°
2026-04-26 07:31 -33.93671 151.18051 29 ft 2 kts 180°
2026-04-26 07:31 -33.93707 151.18057 29 ft 8 kts 169°
2026-04-26 07:32 -33.93772 151.18046 29 ft 11 kts 230°
2026-04-26 07:32 -33.93796 151.17961 29 ft 10 kts 254°
2026-04-26 07:32 -33.93816 151.17878 29 ft 10 kts 254°
2026-04-26 07:32 -33.93824 151.17843 29 ft 5 kts 254°
2026-04-26 07:33 -33.93827 151.17831 29 ft 0 kts 254°
2026-04-26 07:33 -33.93827 151.17830 29 ft 1 kts 254°
2026-04-26 07:33 -33.93830 151.17817 29 ft 5 kts 255°
2026-04-26 07:34 -33.93873 151.17773 29 ft 12 kts 180°
2026-04-26 07:34 -33.93975 151.17798 28 ft 18 kts 168°
2026-04-26 07:34 -33.94098 151.17830 28 ft 18 kts 168°
2026-04-26 07:34 -33.94219 151.17861 29 ft 17 kts 168°
2026-04-26 07:35 -33.94335 151.17891 29 ft 17 kts 168°
2026-04-26 07:35 -33.94447 151.17908 29 ft 16 kts 194°
2026-04-26 07:35 -33.94552 151.17888 29 ft 15 kts 167°
2026-04-26 07:35 -33.94654 151.17916 29 ft 16 kts 167°
2026-04-26 07:36 -33.94772 151.17945 29 ft 18 kts 169°
2026-04-26 07:36 -33.94894 151.17979 29 ft 18 kts 170°
2026-04-26 07:36 -33.95011 151.18008 29 ft 17 kts 167°
2026-04-26 07:36 -33.95099 151.18053 29 ft 11 kts 117°
2026-04-26 07:37 -33.95093 151.18148 29 ft 13 kts 77°
2026-04-26 07:37 -33.95072 151.18262 29 ft 15 kts 78°
2026-04-26 07:37 -33.95051 151.18379 29 ft 14 kts 78°
2026-04-26 07:37 -33.95051 151.18487 29 ft 13 kts 126°
2026-04-26 07:38 -33.95124 151.18549 29 ft 13 kts 139°
2026-04-26 07:38 -33.95197 151.18632 29 ft 17 kts 137°
2026-04-26 07:38 -33.95339 151.18725 29 ft 29 kts 168°
2026-04-26 07:38 -33.95544 151.18778 29 ft 30 kts 168°
2026-04-26 07:39 -33.95743 151.18829 29 ft 28 kts 168°
2026-04-26 07:39 -33.95931 151.18878 29 ft 27 kts 167°
2026-04-26 07:39 -33.96107 151.18924 29 ft 26 kts 167°
2026-04-26 07:39 -33.96295 151.18973 29 ft 29 kts 168°
2026-04-26 07:40 -33.96496 151.19025 29 ft 29 kts 167°
2026-04-26 07:40 -33.96673 151.19071 29 ft 21 kts 168°
2026-04-26 07:40 -33.96812 151.19063 29 ft 20 kts 174°
2026-04-26 07:40 -33.96946 151.19097 29 ft 19 kts 168°
2026-04-26 07:41 -33.97070 151.19129 29 ft 12 kts 168°
2026-04-26 07:41 -33.97122 151.19170 29 ft 9 kts 115°
2026-04-26 07:41 -33.97118 151.19243 28 ft 9 kts 77°
2026-04-26 07:41 -33.97113 151.19269 27 ft 0 kts 77°
2026-04-26 07:43 -33.97113 151.19271 27 ft 1 kts 76°
2026-04-26 07:43 -33.97106 151.19311 29 ft 10 kts 78°
2026-04-26 07:43 -33.97094 151.19366 27 ft 3 kts 60°
2026-04-26 07:44 -33.97073 151.19376 26 ft 3 kts
2026-04-26 07:44 -33.97059 151.19372 26 ft 0 kts 348°
2026-04-26 07:46 -33.96993 151.19356 24 ft 37 kts 347°
2026-04-26 07:46 -33.96475 151.19221 25 ft 112 kts 348°
2026-04-26 07:46 -33.95521 151.18962 119 ft 162 kts 351°
2026-04-26 07:46 -33.94400 151.18677 892 ft 163 kts 354°
2026-04-26 07:47 -33.93360 151.18991 1689 ft 164 kts 38°
2026-04-26 07:47 -33.92797 151.20297 2109 ft 190 kts 86°
2026-04-26 07:47 -33.93055 151.21843 3013 ft 195 kts 109°
2026-04-26 07:47 -33.93652 151.23351 3789 ft 200 kts 112°
2026-04-26 07:48 -33.93917 151.25037 4267 ft 217 kts 85°
2026-04-26 07:48 -33.93812 151.26958 4514 ft 241 kts 86°
2026-04-26 07:48 -33.93734 151.29073 4817 ft 266 kts 86°
2026-04-26 07:48 -33.93663 151.31306 5529 ft 273 kts 88°
2026-04-26 07:49 -33.93595 151.33593 6399 ft 275 kts 88°
2026-04-26 07:49 -33.93527 151.35908 7210 ft 278 kts 88°
2026-04-26 07:49 -33.93615 151.38228 8019 ft 280 kts 106°
2026-04-26 07:50 -33.96355 151.41340 9622 ft 287 kts 165°
2026-04-26 07:50 -33.98346 151.41516 10339 ft 294 kts 187°
2026-04-26 07:50 -34.00374 151.40775 10552 ft 318 kts 205°
2026-04-26 07:50 -34.02272 151.39254 10859 ft 336 kts 219°
2026-04-26 07:51 -34.04026 151.37335 11495 ft 342 kts 223°
2026-04-26 07:51 -34.05722 151.35342 12193 ft 346 kts 224°
2026-04-26 07:51 -34.07448 151.33304 12969 ft 349 kts 224°
2026-04-26 07:51 -34.09211 151.31251 13684 ft 354 kts 223°
2026-04-26 07:52 -34.11007 151.29194 14412 ft 358 kts 223°
2026-04-26 07:52 -34.12840 151.27121 15116 ft 362 kts 223°
2026-04-26 07:52 -34.14695 151.25041 15863 ft 365 kts 222°
2026-04-26 07:52 -34.16578 151.22939 16524 ft 371 kts 222°
2026-04-26 07:53 -34.18490 151.20811 17154 ft 377 kts 222°
2026-04-26 07:53 -34.20428 151.18657 17931 ft 379 kts 222°
2026-04-26 07:53 -34.22384 151.16483 18527 ft 386 kts 222°
2026-04-26 07:53 -34.24362 151.14281 19187 ft 388 kts 221°
2026-04-26 07:54 -34.26355 151.12061 19809 ft 391 kts 222°
2026-04-26 07:54 -34.28339 151.09851 20352 ft 396 kts 222°
2026-04-26 07:54 -34.30368 151.07588 21026 ft 397 kts 222°
2026-04-26 07:54 -34.32409 151.05313 21562 ft 401 kts 222°
2026-04-26 07:55 -34.34473 151.03009 22173 ft 404 kts 222°
2026-04-26 07:55 -34.36548 151.00691 22724 ft 408 kts 222°
2026-04-26 07:55 -34.38646 150.98345 23269 ft 412 kts 223°
2026-04-26 07:55 -34.40764 150.95976 23866 ft 414 kts 222°
2026-04-26 07:56 -34.42887 150.93598 24342 ft 416 kts 222°
2026-04-26 07:56 -34.44991 150.91241 24810 ft 419 kts 222°
2026-04-26 07:56 -34.47135 150.88837 25307 ft 420 kts 222°
2026-04-26 07:56 -34.49287 150.86422 25760 ft 423 kts 222°
2026-04-26 07:57 -34.51451 150.83992 26220 ft 424 kts 223°
2026-04-26 07:57 -34.53623 150.81552 26689 ft 426 kts 223°
2026-04-26 07:57 -34.55781 150.79063 27125 ft 428 kts 226°
2026-04-26 07:57 -34.57689 150.76269 27539 ft 431 kts 233°
2026-04-26 07:58 -34.59460 150.73329 27963 ft 433 kts 234°
2026-04-26 07:58 -34.61215 150.70338 28342 ft 436 kts 234°
2026-04-26 07:58 -34.62955 150.67363 28735 ft 438 kts 234°
2026-04-26 07:58 -34.64736 150.64338 29142 ft 440 kts 234°
2026-04-26 07:59 -34.66529 150.61315 29536 ft 442 kts 234°
2026-04-26 07:59 -34.68341 150.58279 29908 ft 444 kts 233°
2026-04-26 07:59 -34.70167 150.55230 30271 ft 446 kts 233°
2026-04-26 07:59 -34.72003 150.52167 30580 ft 448 kts 233°
2026-04-26 08:00 -34.73821 150.49134 30876 ft 450 kts 233°
2026-04-26 08:00 -34.75668 150.46050 31259 ft 449 kts 233°
2026-04-26 08:00 -34.77495 150.42996 31821 ft 443 kts 233°
2026-04-26 08:00 -34.79302 150.39974 32308 ft 440 kts 233°
2026-04-26 08:01 -34.81103 150.36957 32646 ft 441 kts 233°
2026-04-26 08:01 -34.82914 150.33922 32861 ft 444 kts 233°
2026-04-26 08:01 -34.84728 150.30878 33215 ft 444 kts 233°
2026-04-26 08:01 -34.86531 150.27850 33675 ft 441 kts 233°
2026-04-26 08:02 -34.88326 150.24834 34085 ft 439 kts 233°
2026-04-26 08:02 -34.90096 150.21855 34392 ft 439 kts 234°
2026-04-26 08:02 -34.91889 150.18836 34666 ft 439 kts 234°
2026-04-26 08:02 -34.93678 150.15822 34970 ft 438 kts 234°
2026-04-26 08:03 -34.95460 150.12816 35274 ft 438 kts 234°
2026-04-26 08:03 -34.97243 150.09806 35553 ft 437 kts 234°
2026-04-26 08:03 -34.99024 150.06796 35819 ft 437 kts 234°
2026-04-26 08:03 -35.00803 150.03787 36106 ft 437 kts 234°
2026-04-26 08:04 -35.02580 150.00781 36386 ft 436 kts 234°
2026-04-26 08:04 -35.04357 149.97772 36649 ft 436 kts 234°
2026-04-26 08:04 -35.06108 149.94805 36902 ft 436 kts 234°
2026-04-26 08:04 -35.07885 149.91795 37176 ft 435 kts 235°
2026-04-26 08:05 -35.09652 149.88802 37445 ft 435 kts 235°
2026-04-26 08:05 -35.11421 149.85803 37719 ft 434 kts 235°
2026-04-26 08:05 -35.13182 149.82814 37992 ft 433 kts 235°
2026-04-26 08:05 -35.14940 149.79829 38224 ft 433 kts 235°
2026-04-26 08:06 -35.18481 149.73805 38243 ft 436 kts 235°
2026-04-26 08:06 -35.21984 149.67835 38238 ft 432 kts 235°
2026-04-26 08:07 -35.25472 149.61882 38238 ft 429 kts 235°
2026-04-26 08:07 -35.28940 149.55953 38241 ft 427 kts 235°
2026-04-26 08:08 -35.32395 149.50035 38246 ft 426 kts 236°
2026-04-26 08:08 -35.35819 149.44158 38242 ft 426 kts 236°
2026-04-26 08:09 -35.39267 149.38232 38241 ft 427 kts 236°
2026-04-26 08:09 -35.42728 149.32274 38247 ft 429 kts 236°
2026-04-26 08:10 -35.46199 149.26288 38245 ft 431 kts 236°
2026-04-26 08:10 -35.49664 149.20303 38247 ft 433 kts 236°
2026-04-26 08:11 -35.53157 149.14258 38242 ft 435 kts 236°
2026-04-26 08:11 -35.56660 149.08186 38246 ft 436 kts 236°
2026-04-26 08:12 -35.60167 149.02096 38260 ft 436 kts 236°
2026-04-26 08:12 -35.63650 148.96038 38259 ft 436 kts 236°
2026-04-26 08:13 -35.67142 148.89954 38272 ft 435 kts 236°
2026-04-26 08:13 -35.70625 148.83873 38276 ft 434 kts 236°
2026-04-26 08:14 -35.74095 148.77805 38272 ft 432 kts 236°
2026-04-26 08:14 -35.77547 148.71758 38271 ft 431 kts 236°
2026-04-26 08:15 -35.80972 148.65747 38278 ft 430 kts 236°
2026-04-26 08:15 -35.84404 148.59713 38282 ft 429 kts 236°
2026-04-26 08:16 -35.87830 148.53681 38296 ft 428 kts 237°
2026-04-26 08:16 -35.91232 148.47656 38276 ft 428 kts 237°
2026-04-26 08:17 -35.94618 148.41629 38284 ft 427 kts 237°
2026-04-26 08:17 -35.98000 148.35601 38284 ft 427 kts 237°
2026-04-26 08:18 -36.01378 148.29571 38288 ft 427 kts 237°
2026-04-26 08:18 -36.04735 148.23569 38268 ft 427 kts 237°
2026-04-26 08:19 -36.08111 148.17522 38272 ft 428 kts 237°
2026-04-26 08:19 -36.11490 148.11461 38267 ft 428 kts 237°
2026-04-26 08:20 -36.14326 148.06380 38275 ft 428 kts 237°
2026-04-26 08:20 -36.17697 148.00347 38256 ft 428 kts 237°
2026-04-26 08:21 -36.21082 147.94277 38270 ft 428 kts 237°
2026-04-26 08:21 -36.24462 147.88200 38258 ft 428 kts 237°
2026-04-26 08:22 -36.27838 147.82121 38263 ft 427 kts 237°
2026-04-26 08:22 -36.31201 147.76055 38253 ft 427 kts 237°
2026-04-26 08:23 -36.34537 147.70024 38265 ft 426 kts 237°
2026-04-26 08:23 -36.37880 147.63961 38262 ft 425 kts 237°
2026-04-26 08:24 -36.41217 147.57895 38258 ft 425 kts 237°
2026-04-26 08:24 -36.44544 147.51838 38255 ft 424 kts 237°
2026-04-26 08:25 -36.47863 147.45783 38251 ft 424 kts 237°
2026-04-26 08:25 -36.51184 147.39715 38115 ft 426 kts 237°
2026-04-26 08:26 -36.52833 147.36699 37710 ft 426 kts 237°
2026-04-26 08:26 -36.54487 147.33670 37301 ft 421 kts 237°
2026-04-26 08:26 -36.56123 147.30673 36934 ft 416 kts 237°
2026-04-26 08:26 -36.57738 147.27711 36527 ft 411 kts 237°
2026-04-26 08:27 -36.59334 147.24781 36156 ft 407 kts 237°
2026-04-26 08:27 -36.60912 147.21880 35775 ft 403 kts 237°
2026-04-26 08:27 -36.62480 147.18997 35385 ft 400 kts 238°
2026-04-26 08:27 -36.64032 147.16139 35009 ft 396 kts 238°
2026-04-26 08:28 -36.65571 147.13303 34639 ft 394 kts 238°
2026-04-26 08:28 -36.67099 147.10485 34262 ft 391 kts 238°
2026-04-26 08:28 -36.68610 147.07698 33940 ft 385 kts 238°
2026-04-26 08:28 -36.70118 147.04911 33694 ft 392 kts 238°
2026-04-26 08:29 -36.71669 147.02041 33459 ft 407 kts 238°
2026-04-26 08:29 -36.73280 146.99063 33223 ft 421 kts 238°
2026-04-26 08:29 -36.74944 146.95986 32973 ft 433 kts 238°
2026-04-26 08:29 -36.76646 146.92838 32713 ft 441 kts 238°
2026-04-26 08:30 -36.78347 146.89693 32456 ft 443 kts 238°
2026-04-26 08:30 -36.80068 146.86508 32202 ft 443 kts 238°
2026-04-26 08:30 -36.81792 146.83314 31940 ft 443 kts 238°
2026-04-26 08:30 -36.83514 146.80118 31695 ft 443 kts 238°
2026-04-26 08:31 -36.85232 146.76926 31460 ft 443 kts 238°
2026-04-26 08:31 -36.86948 146.73736 31207 ft 442 kts 238°
2026-04-26 08:31 -36.88658 146.70554 30953 ft 440 kts 238°
2026-04-26 08:31 -36.90363 146.67379 30569 ft 436 kts 238°
2026-04-26 08:32 -36.92041 146.64250 30093 ft 430 kts 238°
2026-04-26 08:32 -36.93698 146.61156 29532 ft 426 kts 238°
2026-04-26 08:32 -36.95335 146.58098 29035 ft 421 kts 239°
2026-04-26 08:32 -36.96953 146.55071 28534 ft 416 kts 239°
2026-04-26 08:33 -36.98554 146.52074 28030 ft 412 kts 239°
2026-04-26 08:33 -37.00122 146.49134 27537 ft 409 kts 239°
2026-04-26 08:33 -37.01694 146.46184 27055 ft 405 kts 239°
2026-04-26 08:33 -37.03253 146.43255 26574 ft 402 kts 239°
2026-04-26 08:34 -37.04800 146.40348 26099 ft 400 kts 239°
2026-04-26 08:34 -37.06339 146.37455 25634 ft 398 kts 239°
2026-04-26 08:34 -37.07867 146.34581 25143 ft 396 kts 239°
2026-04-26 08:34 -37.09404 146.31681 24390 ft 402 kts 239°
2026-04-26 08:35 -37.10947 146.28764 23830 ft 402 kts 240°
2026-04-26 08:35 -37.12488 146.25852 23252 ft 400 kts 240°
2026-04-26 08:35 -37.14018 146.22955 22746 ft 396 kts 240°
2026-04-26 08:35 -37.15534 146.20087 22240 ft 393 kts 240°
2026-04-26 08:36 -37.17034 146.17243 21769 ft 389 kts 240°
2026-04-26 08:36 -37.18518 146.14427 21314 ft 385 kts 240°
2026-04-26 08:36 -37.19988 146.11636 20865 ft 382 kts 240°
2026-04-26 08:36 -37.21446 146.08863 20391 ft 379 kts 241°
2026-04-26 08:37 -37.22875 146.06144 19942 ft 377 kts 241°
2026-04-26 08:37 -37.24315 146.03402 19489 ft 375 kts 241°
2026-04-26 08:37 -37.25746 146.00674 19033 ft 373 kts 241°
2026-04-26 08:37 -37.27172 145.97955 18562 ft 372 kts 241°
2026-04-26 08:38 -37.28590 145.95247 18050 ft 370 kts 241°
2026-04-26 08:38 -37.29999 145.92555 17592 ft 367 kts 241°
2026-04-26 08:38 -37.31406 145.89871 17089 ft 365 kts 241°
2026-04-26 08:38 -37.32807 145.87212 16602 ft 363 kts 241°
2026-04-26 08:39 -37.34178 145.84611 16166 ft 360 kts 241°
2026-04-26 08:39 -37.35562 145.81985 15716 ft 357 kts 240°
2026-04-26 08:39 -37.36926 145.79394 15302 ft 354 kts 240°
2026-04-26 08:39 -37.38279 145.76819 14848 ft 351 kts 241°
2026-04-26 08:40 -37.39621 145.74262 14446 ft 349 kts 240°
2026-04-26 08:40 -37.40950 145.71729 14031 ft 346 kts 240°
2026-04-26 08:40 -37.42272 145.69207 13563 ft 343 kts 240°
2026-04-26 08:40 -37.43564 145.66741 13128 ft 340 kts 240°
2026-04-26 08:41 -37.44724 145.64193 12690 ft 331 kts 253°
2026-04-26 08:41 -37.45136 145.61419 12407 ft 319 kts 270°
2026-04-26 08:41 -37.45132 145.58651 12018 ft 315 kts 273°
2026-04-26 08:41 -37.45066 145.55899 11593 ft 312 kts 274°
2026-04-26 08:42 -37.45000 145.53180 11217 ft 310 kts 273°
2026-04-26 08:42 -37.44946 145.50475 10842 ft 308 kts 273°
2026-04-26 08:42 -37.44905 145.47817 10576 ft 302 kts 272°
2026-04-26 08:42 -37.44869 145.45204 10378 ft 295 kts 272°
2026-04-26 08:43 -37.44835 145.42665 10243 ft 286 kts 272°
2026-04-26 08:43 -37.44804 145.40199 10105 ft 277 kts 272°
2026-04-26 08:43 -37.44775 145.37810 9937 ft 270 kts 272°
2026-04-26 08:43 -37.44746 145.35455 9634 ft 268 kts 272°
2026-04-26 08:44 -37.44717 145.33119 9358 ft 266 kts 272°
2026-04-26 08:44 -37.44688 145.30798 9078 ft 264 kts 272°
2026-04-26 08:44 -37.44658 145.28495 8798 ft 262 kts 272°
2026-04-26 08:44 -37.44629 145.26206 8509 ft 261 kts 272°
2026-04-26 08:45 -37.44600 145.23961 8242 ft 259 kts 272°
2026-04-26 08:45 -37.44570 145.21702 7971 ft 257 kts 272°
2026-04-26 08:45 -37.44539 145.19464 7705 ft 255 kts 272°
2026-04-26 08:45 -37.44508 145.17235 7437 ft 254 kts 272°
2026-04-26 08:46 -37.44477 145.15025 7184 ft 252 kts 272°
2026-04-26 08:46 -37.44445 145.12825 6917 ft 251 kts 271°
2026-04-26 08:46 -37.44414 145.10636 6657 ft 250 kts 271°
2026-04-26 08:46 -37.44382 145.08455 6370 ft 249 kts 271°
2026-04-26 08:47 -37.44350 145.06288 6102 ft 247 kts 271°
2026-04-26 08:47 -37.44318 145.04131 5871 ft 244 kts 271°
2026-04-26 08:47 -37.44286 145.02039 5768 ft 235 kts 271°
2026-04-26 08:47 -37.44255 145.00008 5572 ft 232 kts 272°
2026-04-26 08:48 -37.44224 144.97980 5326 ft 230 kts 272°
2026-04-26 08:48 -37.44193 144.95997 5084 ft 229 kts 272°
2026-04-26 08:48 -37.44183 144.93994 4830 ft 229 kts 267°
2026-04-26 08:48 -37.44448 144.92046 4725 ft 222 kts 261°
2026-04-26 08:49 -37.44736 144.90190 4651 ft 210 kts 262°
2026-04-26 08:49 -37.44994 144.88445 4560 ft 196 kts 262°
2026-04-26 08:49 -37.45233 144.86794 4453 ft 190 kts 262°
2026-04-26 08:49 -37.45465 144.85160 4296 ft 191 kts 263°
2026-04-26 08:50 -37.45698 144.83519 4114 ft 188 kts 263°
2026-04-26 08:50 -37.45950 144.81900 3939 ft 187 kts 254°
2026-04-26 08:50 -37.46735 144.80668 3962 ft 192 kts 209°
2026-04-26 08:50 -37.48092 144.80415 3808 ft 206 kts 178°
2026-04-26 08:51 -37.50991 144.80805 3241 ft 209 kts 172°
2026-04-26 08:51 -37.52422 144.81071 2972 ft 207 kts 172°
2026-04-26 08:51 -37.53832 144.81337 2712 ft 200 kts 173°
2026-04-26 08:52 -37.55172 144.81589 2435 ft 189 kts 172°
2026-04-26 08:52 -37.56420 144.81823 2206 ft 177 kts 172°
2026-04-26 08:52 -37.57580 144.82041 1959 ft 162 kts 172°
2026-04-26 08:52 -37.58686 144.82260 1733 ft 158 kts 173°
2026-04-26 08:53 -37.59764 144.82457 1521 ft 155 kts 172°
2026-04-26 08:53 -37.60835 144.82650 1360 ft 155 kts 172°
2026-04-26 08:53 -37.61894 144.82851 1189 ft 152 kts 174°
2026-04-26 08:53 -37.62926 144.83036 932 ft 148 kts 173°
2026-04-26 08:54 -37.63919 144.83226 728 ft 141 kts 173°
2026-04-26 08:54 -37.64859 144.83406 571 ft 133 kts 173°
2026-04-26 08:54 -37.65766 144.83576 422 ft 129 kts 173°
2026-04-26 08:54 -37.66491 144.83710 404 ft 77 kts 171°
2026-04-26 08:55 -37.66847 144.83777 392 ft 23 kts 169°
2026-04-26 08:55 -37.66984 144.83829 385 ft 16 kts 155°
2026-04-26 08:55 -37.67080 144.83903 382 ft 16 kts 142°
2026-04-26 08:55 -37.67166 144.83989 379 ft 16 kts 141°
2026-04-26 08:56 -37.67223 144.84102 378 ft 16 kts 96°
2026-04-26 08:56 -37.67217 144.84191 379 ft 15 kts 83°
2026-04-26 08:56 -37.67203 144.84360 382 ft 14 kts 84°
2026-04-26 08:56 -37.67173 144.84450 384 ft 11 kts 33°
2026-04-26 08:57 -37.67101 144.84452 386 ft 10 kts 351°
2026-04-26 08:57 -37.67032 144.84457 387 ft 10 kts 38°
2026-04-26 08:57 -37.67015 144.84538 389 ft 10 kts 87°
2026-04-26 08:57 -37.67012 144.84602 390 ft 4 kts 107°
2026-04-26 08:58 -37.67039 144.84619 389 ft 5 kts 171°
2026-04-26 08:58 -37.67065 144.84623 389 ft 2 kts 171°
2026-04-26 08:58 -37.67070 144.84624 389 ft 0 kts 172°